| time (UTC) | temp F | wind direction | speed MPH | gust MPH | rain 1hr in | rain 24hr in | rain mn in | humidity % | barometer mb |
| 20260507190022 | 77 | 360 | 4.0 | 9.0 | 0.00 | 0.00 | 0.00 | 92 | 1007.9 |
| 20260507180139 | 78 | 355 | 4.0 | 9.0 | 0.00 | 0.00 | 0.00 | 88 | 1008.2 |
| 20260507174552 | 79 | 343 | 4.0 | 9.0 | 0.00 | 0.00 | 0.00 | 88 | 1008.4 |
| 20260507164636 | 79 | 343 | 4.0 | 9.0 | 0.00 | 0.00 | 0.00 | 87 | 1008.9 |
| 20260507163008 | 79 | 360 | 4.0 | 9.0 | 0.00 | 0.00 | 0.00 | 87 | 1009.3 |
| 20260507154646 | 78 | 355 | 3.0 | 10.0 | 0.00 | 0.00 | 0.00 | 89 | 1010.3 |
| 20260507153118 | 78 | 333 | 1.0 | 5.0 | 0.00 | 0.00 | 0.00 | 90 | 1010.7 |
| 20260507143104 | 76 | 23 | 3.0 | 9.0 | 0.00 | 0.00 | 0.00 | 93 | 1012.2 |
| 20260507133113 | 76 | 360 | 1.0 | 10.0 | 0.00 | 0.00 | 0.00 | 93 | 1013.3 |
| 20260507121629 | 75 | 4 | 2.0 | 8.0 | 0.00 | 0.00 | 0.00 | 94 | 1014.0 |
| 20260507120036 | 75 | 355 | 0.0 | 5.0 | 0.00 | 0.00 | 0.00 | 94 | 1013.9 |
| 20260507110038 | 74 | 341 | 0.0 | 5.0 | 0.00 | 0.00 | 0.00 | 97 | 1014.0 |
| 20260507100048 | 73 | 355 | 4.0 | 6.0 | 0.00 | 0.00 | 0.00 | 100 | 1013.9 |
| 20260507083051 | 73 | 360 | 0.0 | 0.0 | 0.00 | 0.00 | 0.00 | 100 | 1013.4 |
| 20260507073151 | 74 | 360 | 0.0 | 0.0 | 0.00 | 0.00 | 0.00 | 100 | 1013.5 |
| 20260507071604 | 74 | 360 | 0.0 | 0.0 | 0.00 | 0.00 | 0.00 | 100 | 1013.6 |
| 20260507070019 | 74 | 360 | 0.0 | 0.0 | 0.00 | 0.00 | 0.00 | 100 | 1013.7 |
| 20260507061657 | 74 | 360 | 0.0 | 0.0 | 0.00 | 0.00 | 0.00 | 99 | 1014.3 |
| 20260507060104 | 74 | 6 | 0.0 | 2.0 | 0.00 | 0.00 | 0.00 | 99 | 1014.4 |
| 20260507050153 | 74 | 6 | 0.0 | 3.0 | 0.00 | 0.00 | 0.00 | 98 | 1015.1 |
| 20260507044543 | 74 | 360 | 0.0 | 3.0 | 0.00 | 0.00 | 0.00 | 98 | 1015.4 |
| 20260507040123 | 74 | 360 | 0.0 | 4.0 | 0.00 | 0.00 | 0.00 | 98 | 1015.5 |
| 20260507030114 | 74 | 46 | 0.0 | 3.0 | 0.00 | 0.00 | 0.00 | 98 | 1016.1 |
| 20260507024508 | 74 | 46 | 0.0 | 2.0 | 0.00 | 0.00 | 0.00 | 98 | 1016.2 |
| 20260507014604 | 74 | 46 | 0.0 | 2.0 | 0.00 | 0.00 | 0.00 | 97 | 1016.5 |
| 20260507004545 | 74 | 23 | 0.0 | 3.0 | 0.00 | 0.00 | 0.00 | 96 | 1016.7 |
| 20260506234550 | 74 | 350 | 0.0 | 3.0 | 0.00 | 0.00 | 0.00 | 96 | 1017.2 |
| 20260506224601 | 74 | 29 | 0.0 | 3.0 | 0.00 | 0.00 | 0.00 | 97 | 1016.7 |
| 20260506214613 | 75 | 337 | 0.0 | 3.0 | 0.00 | 0.00 | 0.00 | 97 | 1016.4 |
| 20260506213012 | 75 | 335 | 0.0 | 3.0 | 0.00 | 0.00 | 0.00 | 97 | 1016.4 |
| 20260506204658 | 75 | 350 | 1.0 | 4.0 | 0.00 | 0.00 | 0.00 | 96 | 1016.2 |
| 20260506203032 | 76 | 350 | 0.0 | 2.0 | 0.00 | 0.00 | 0.00 | 96 | 1016.0 |